Alabaster, AL

4:06 PM CDT on May 23, 2017 (GMT -0500)
Shelby County

Weather History for KEET - May, 2013

Change the Weather History Date:

Thursday, May 2, 2013

  Actual Average Record
Temperature  
Mean Temperature 66 °F 67 °F  
Max Temperature 69 °F 78 °F 90 °F (2012)
Min Temperature 62 °F 56 °F 34 °F (1963)
Degree Days  
Heating Degree Days 0 2  
Month to date heating degree days 0 4  
Since 1 July heating degree days 2382 2572  
Cooling Degree Days 1 4  
Month to date cooling degree days 4 7  
Year to date cooling degree days 77 82  
Growing Degree Days 16 (Base 50)    
Moisture  
Dew Point 58 °F    
Average Humidity 74    
Maximum Humidity 81    
Minimum Humidity 67    
Precipitation  
Precipitation T in 0.14 in 1.45 in (1950)
Month to date precipitation T 0.28  
Year to date precipitation 25.29 19.73  
Snow  
Snow 0.00 in - - ()
Month to date snowfall 0.0  
Since 1 July snowfall 0.9  
Snow Depth 0.00 in    
Sea Level Pressure  
Sea Level Pressure 30.06 in    
Wind  
Wind Speed 5 mph (East)    
Max Wind Speed 12 mph    
Max Gust Speed 18 mph    
Visibility 10 miles    
Events      
T = Trace of Precipitation, MM = Missing Value Source: NWS Daily Summary

Daily Weather History Graph

Daily Weather History Graph

Search for Another Location

Airport or City:

Trip Planner

Search our weather history database for the weather conditions in past years. The results will help you decide how hot, cold, wet, or windy it might be!

Date:

Astronomy

May. 02, 2013 Rise Set
Actual Time 5:58 AM CDT 7:30 PM CDT
Civil Twilight 5:31 AM CDT 7:57 PM CDT
Nautical Twilight 4:59 AM CDT 8:28 PM CDT
Astronomical Twilight 4:26 AM CDT 9:02 PM CDT
Moon 1:22 AM CDT (5/2) 12:41 PM CDT (5/2)
Length of Visible Light 14h 25m
Length of Day
13h 32m
Waning Gibbous, 47% of the Moon is Illuminated
May 2
Waning Gibbous
May 9
New
May 17
First Quarter
May 24
Full
May 31
Last Quarter

Hourly Weather History & Observations

Time (CDT) Temp. Dew Point Humidity Pressure Visibility Wind Dir Wind Speed Gust Speed Precip Events Conditions
12:53 AM 64.0 °F 54.0 °F 70% 30.07 in 10.0 mi East 6.9 mph 19.6 mph N/A   Clear
1:53 AM 63.0 °F 54.0 °F 72% 30.05 in 10.0 mi Variable 6.9 mph - N/A   Partly Cloudy
2:53 AM 63.0 °F 55.0 °F 75% 30.05 in 10.0 mi East 6.9 mph - N/A   Mostly Cloudy
3:53 AM 63.0 °F 55.0 °F 75% 30.05 in 10.0 mi East 8.1 mph - N/A   Overcast
4:13 AM 62.6 °F 55.4 °F 77% 30.06 in 10.0 mi Variable 4.6 mph - N/A   Overcast
4:53 AM 63.0 °F 55.0 °F 75% 30.04 in 10.0 mi East 4.6 mph - N/A   Overcast
5:25 AM 62.6 °F 55.4 °F 77% 30.05 in 10.0 mi Calm Calm - N/A   Overcast
5:53 AM 63.0 °F 55.9 °F 78% 30.05 in 10.0 mi Variable 3.5 mph - N/A   Overcast
6:11 AM 62.6 °F 55.4 °F 77% 30.07 in 10.0 mi Variable 4.6 mph - N/A   Overcast
6:53 AM 63.0 °F 55.9 °F 78% 30.07 in 10.0 mi Variable 5.8 mph - N/A   Overcast
7:53 AM 64.0 °F 57.0 °F 78% 30.08 in 10.0 mi East 8.1 mph - N/A   Overcast
8:53 AM 64.9 °F 57.9 °F 78% 30.09 in 10.0 mi Variable 5.8 mph - N/A   Overcast
9:53 AM 66.0 °F 59.0 °F 78% 30.10 in 10.0 mi Variable 5.8 mph - N/A   Overcast
10:53 AM 66.9 °F 59.0 °F 76% 30.10 in 10.0 mi Variable 6.9 mph - N/A   Overcast
11:53 AM 66.9 °F 59.0 °F 76% 30.09 in 10.0 mi Variable 5.8 mph - N/A   Overcast
12:53 PM 66.9 °F 59.0 °F 76% 30.09 in 10.0 mi Variable 6.9 mph - N/A   Overcast
1:53 PM 68.0 °F 60.1 °F 76% 30.08 in 10.0 mi Variable 4.6 mph - N/A   Overcast
2:53 PM 66.9 °F 60.1 °F 79% 30.07 in 10.0 mi Calm Calm - N/A   Overcast
3:53 PM 66.9 °F 61.0 °F 81% 30.05 in 10.0 mi East 4.6 mph - 0.00 in   Overcast
4:31 PM 68.0 °F 60.8 °F 78% 30.05 in 10.0 mi Calm Calm - N/A   Overcast
4:53 PM 68.0 °F 60.1 °F 76% 30.04 in 10.0 mi Variable 4.6 mph - N/A   Overcast
5:25 PM 68.0 °F 60.8 °F 78% 30.05 in 10.0 mi Variable 5.8 mph - N/A   Overcast
5:43 PM 69.8 °F 60.8 °F 73% 30.04 in 10.0 mi ENE 5.8 mph - N/A   Scattered Clouds
5:53 PM 69.1 °F 60.1 °F 73% 30.03 in 10.0 mi Calm Calm - N/A   Scattered Clouds
6:04 PM 69.8 °F 60.8 °F 73% 30.04 in 10.0 mi Variable 4.6 mph - N/A   Mostly Cloudy
6:24 PM 68.0 °F 60.8 °F 78% 30.04 in 10.0 mi Calm Calm - N/A   Overcast
6:53 PM 68.0 °F 60.1 °F 76% 30.02 in 10.0 mi NE 4.6 mph - N/A   Overcast
7:53 PM 66.0 °F 60.1 °F 81% 30.03 in 10.0 mi Variable 3.5 mph - N/A   Clear
8:53 PM 66.0 °F 60.1 °F 81% 30.04 in 10.0 mi ENE 3.5 mph - N/A   Mostly Cloudy
9:53 PM 66.9 °F 59.0 °F 76% 30.04 in 10.0 mi East 8.1 mph - N/A   Clear
10:53 PM 64.9 °F 57.9 °F 78% 30.04 in 10.0 mi Variable 3.5 mph - N/A   Scattered Clouds
11:01 PM 66.2 °F 57.2 °F 73% 30.05 in 10.0 mi East 8.1 mph - N/A   Mostly Cloudy
11:53 PM 66.0 °F 57.9 °F 75% 30.04 in 10.0 mi Variable 5.8 mph - N/A   Overcast